Wind_Speed
4 2 5 4 4 3 4 4 3 4 5 2 6 4 7 6 2 3 17 21 31 30 25 23 22 23 21 19 18 17 17 15 14 14 15 15 15 14 14 14 13 12 11 10 10 10 11 9 9
7 2 6 1 4 3 4 4 10 5 6 10 7 7 5 3 5 12 17 31 34 30 25 23 21 22 21 20 19 18 16 14 14 14 14 14 15 15 15 15 15 13 12 12 12 11 11 10 10
9 2 3 3 2 4 4 3 10 8 9 4 4 5 4 6 15 19 23 33 32 29 25 23 22 22 21 20 19 17 16 14 14 14 15 14 15 14 15 15 15 14 13 13 12 11 11 11 11
3 6 3 3 4 4 7 5 10 11 8 6 10 8 5 13 13 19 34 34 31 28 25 23 22 20 20 19 18 17 15 15 14 14 15 14 14 15 15 14 14 13 13 13 12 12 11 12 10
5 2 1 3 5 3 6 9 17 6 6 10 9 8 3 5 25 35 35 33 31 29 26 24 22 21 20 19 17 16 16 16 15 15 15 15 14 13 14 13 13 12 12 12 12 12 11 11 12
3 2 2 2 5 4 7 9 15 15 14 14 11 7 2 28 36 32 34 32 31 32 28 25 23 22 20 17 16 16 15 15 16 16 15 15 14 14 14 14 13 12 11 11 11 11 10 10 9
5 2 2 1 2 11 4 18 15 19 17 9 12 6 6 20 30 29 31 31 31 29 28 26 22 20 18 18 17 16 15 14 15 15 15 14 14 13 13 12 11 12 11 10 10 11 11 8 7
3 3 3 5 2 5 11 4 18 20 9 15 15 8 10 19 33 29 27 29 27 27 28 27 24 23 20 19 18 18 17 17 15 15 14 16 14 13 12 11 11 11 10 10 10 9 8 7 6
3 2 4 3 1 3 12 17 12 9 17 6 11 9 23 30 33 27 24 23 23 23 27 27 25 25 22 21 20 18 17 16 16 15 16 15 15 14 14 13 12 11 10 8 9 10 8 7 7
3 2 6 8 1 4 4 12 10 10 11 10 14 16 22 31 31 26 23 22 22 27 30 28 27 26 24 23 22 21 19 19 19 17 18 16 16 15 15 13 11 9 8 8 10 10 9 9 7
4 4 8 8 18 4 6 6 3 13 8 20 22 21 16 19 29 26 26 30 34 34 30 30 29 28 27 25 24 23 22 21 20 18 18 17 16 14 13 12 12 11 9 7 8 11 7 9 7
2 14 15 12 12 9 10 7 4 6 7 19 23 19 15 12 9 24 27 27 25 29 32 30 30 29 27 24 25 24 24 22 21 19 19 18 16 14 15 15 12 11 11 6 5 9 13 13 13
7 13 10 12 11 3 17 14 8 10 18 18 18 17 16 11 13 20 32 30 33 31 31 31 31 29 28 24 24 25 24 23 22 21 18 17 16 14 15 17 15 12 9 7 7 12 16 16 8
11 11 13 16 9 5 18 6 12 7 15 18 18 15 14 14 20 21 22 28 34 34 34 32 32 30 31 27 25 26 24 23 22 23 19 16 15 15 18 12 10 9 7 9 12 9 14 13 7
5 5 4 6 4 4 10 6 7 6 6 13 16 16 15 15 21 24 26 32 32 38 36 36 35 32 33 30 27 25 25 24 23 22 23 19 17 15 20 16 15 13 9 8 12 11 11 9 8
5 3 4 5 6 4 12 1 5 5 3 4 10 15 15 15 19 28 27 34 35 29 38 40 34 33 34 31 27 23 29 28 26 25 22 24 22 17 18 16 16 11 10 15 12 12 17 10 12
4 2 1 4 0 3 7 5 6 8 3 7 5 9 13 14 15 24 30 37 39 34 35 37 35 33 32 29 24 23 20 23 29 28 23 23 22 19 18 18 14 9 15 16 14 17 17 13 16
5 2 4 4 4 6 3 4 6 7 1 6 7 5 5 9 16 23 28 34 38 37 37 40 39 36 35 29 25 23 20 16 17 22 22 24 23 24 21 19 16 13 16 16 14 17 15 15 18
3 4 6 6 8 4 5 7 10 9 5 9 6 7 7 5 7 23 29 35 38 39 40 43 41 36 32 28 27 25 23 23 20 17 20 25 24 23 27 22 18 15 16 17 19 17 15 14 13
2 2 9 9 8 5 4 5 7 9 7 9 4 7 8 6 6 14 23 28 36 43 42 43 42 38 36 34 31 28 27 27 27 24 19 20 30 27 24 25 21 20 20 21 21 20 16 10 10
6 6 6 6 10 7 6 6 4 7 9 11 13 5 9 10 11 8 17 26 30 33 37 43 43 40 38 36 30 24 21 24 27 24 23 26 29 35 30 30 29 25 24 23 21 19 18 13 11
4 12 8 12 5 5 7 3 6 7 12 14 16 13 13 10 11 8 12 18 27 33 38 42 39 37 38 37 34 31 26 25 29 27 28 28 25 34 37 34 31 24 24 22 17 16 19 18 12
7 3 4 8 5 6 4 4 5 6 8 14 14 16 18 13 13 13 13 21 28 29 33 39 40 39 38 39 37 34 30 30 30 22 24 25 30 34 32 31 24 23 23 23 17 19 20 16 15
2 4 9 5 3 4 7 6 5 6 8 5 5 6 9 11 13 13 16 13 13 22 29 37 41 42 38 38 40 37 34 33 29 23 18 19 19 25 24 23 27 22 24 15 17 18 15 12 12
8 6 3 5 4 6 6 4 7 6 7 9 9 9 9 8 12 15 11 11 16 27 33 38 42 34 37 38 40 38 36 33 29 27 24 19 20 21 19 19 20 20 18 15 13 13 14 14 16
1 6 5 3 2 4 4 5 5 8 10 10 7 8 9 6 5 7 12 17 22 31 36 43 42 32 32 36 39 37 38 33 31 31 23 18 17 17 14 13 12 12 15 13 12 12 14 15 13
3 1 5 4 1 4 3 3 5 2 3 3 6 8 9 7 7 8 9 17 22 25 29 35 35 29 28 36 38 36 35 38 34 28 17 19 19 17 15 10 13 15 15 14 18 13 12 12 12
6 3 4 4 2 3 6 3 5 6 8 6 5 9 7 6 6 6 4 7 11 15 18 22 20 14 20 24 36 40 39 39 38 33 24 21 21 17 15 10 12 13 13 16 15 14 14 13 10
2 3 5 4 5 4 2 6 8 10 9 9 6 7 9 8 7 7 6 9 11 12 15 13 17 19 19 23 35 41 40 39 36 31 25 24 22 18 16 14 13 11 12 14 15 12 11 11 12
4 0 2 5 6 1 4 6 6 4 6 11 8 8 7 8 8 7 9 14 13 14 11 7 3 3 12 18 29 38 40 35 23 15 19 25 20 19 16 15 15 12 14 14 14 13 13 13 14
Wind_Direction
187 344 337 40 64 39 337 348 185 89 97 29 91 122 124 54 99 187 153 159 158 155 158 157 155 155 152 145 139 130 124 128 132 126 120 117 114 114 115 115 116 118 123 125 125 126 119 115 102
148 60 34 72 67 65 306 351 77 88 128 149 101 119 74 88 111 119 129 160 158 155 157 158 154 153 154 153 147 141 135 137 135 128 125 121 121 119 115 115 115 117 120 122 119 120 118 116 108
146 204 78 69 137 189 190 204 123 132 156 159 98 33 73 101 115 147 153 153 155 155 157 154 153 152 153 156 152 148 145 141 135 134 129 128 125 125 121 118 119 116 116 120 126 122 118 112 106
342 6 62 53 257 250 173 167 122 116 81 74 116 73 73 121 137 156 155 156 155 157 159 156 154 151 150 153 157 156 152 146 145 138 134 134 128 127 126 129 129 129 128 124 120 116 111 103 96
43 68 86 289 262 191 141 155 124 104 91 114 115 118 69 76 145 147 153 157 156 160 163 157 153 153 151 154 155 155 157 154 148 142 139 137 134 135 136 139 141 138 137 132 126 117 104 96 90
47 44 348 324 285 142 165 154 119 113 113 105 97 94 62 136 138 154 157 160 163 160 163 159 157 156 152 154 155 159 156 151 148 145 143 146 146 144 146 150 152 153 148 142 133 119 106 81 82
117 59 286 260 315 85 142 134 127 133 139 133 128 116 145 148 154 156 155 161 163 162 159 157 155 153 154 160 158 155 153 153 153 153 152 151 153 157 159 162 163 160 159 153 139 124 107 117 115
81 105 267 258 264 43 102 120 138 144 160 127 134 159 173 165 158 153 151 159 163 164 163 160 159 156 164 159 162 159 159 163 163 158 165 162 162 169 168 168 168 165 168 162 139 119 120 119 95
141 100 239 283 266 91 113 115 153 139 136 174 189 147 162 147 149 147 143 148 159 169 168 167 165 164 166 165 166 164 167 167 164 171 169 168 174 177 172 167 164 163 166 166 142 137 168 155 122
103 259 226 196 240 135 130 135 140 117 148 102 109 138 155 143 153 153 157 159 169 174 176 175 171 168 169 170 170 171 172 174 177 179 177 179 178 177 174 171 169 174 177 175 148 166 182 184 207
17 260 294 299 126 83 247 146 99 117 130 149 145 154 158 163 153 161 170 171 180 180 179 181 176 173 172 176 177 174 176 179 183 182 181 181 183 190 198 197 201 192 192 191 181 186 195 181 132
287 251 255 311 173 194 156 131 103 128 165 154 148 154 155 168 183 164 173 180 180 182 184 183 179 176 176 182 184 183 183 185 188 185 180 188 195 207 224 215 206 208 208 197 197 180 173 158 125
270 269 318 145 171 111 84 72 49 107 135 142 146 151 161 171 194 193 180 185 181 184 188 187 182 182 178 180 187 188 187 184 180 178 184 197 212 229 222 221 220 227 223 211 174 181 166 160 160
257 292 305 88 275 99 93 77 103 59 139 148 155 163 171 183 191 207 187 185 179 182 189 191 190 191 189 186 191 190 189 187 187 187 188 197 213 217 197 193 207 204 209 180 169 144 171 168 173
278 304 261 79 325 76 98 22 91 60 128 168 167 171 184 198 191 203 195 187 188 185 188 192 194 195 198 199 199 200 200 202 199 196 194 195 204 197 203 202 210 220 193 198 154 144 168 181 174
349 50 54 316 50 54 52 12 7 92 104 194 201 183 191 206 205 202 204 190 192 180 185 192 189 196 202 203 197 204 224 212 210 204 203 205 205 205 198 205 205 206 232 189 176 151 149 167 180
15 14 120 306 289 158 138 190 264 181 174 215 168 205 204 207 214 209 205 193 192 187 179 182 183 189 190 191 184 186 181 206 217 214 209 207 210 207 205 213 215 227 197 192 179 154 160 158 163
217 259 265 208 204 125 147 194 267 276 220 248 194 191 246 222 207 202 200 192 192 191 186 186 184 181 186 191 196 201 196 190 196 208 213 214 212 215 215 215 215 218 184 172 179 176 154 155 173
167 245 242 261 204 121 216 214 234 239 258 263 163 181 230 249 235 192 192 188 190 191 188 188 192 193 196 196 197 209 212 208 208 216 229 219 224 225 219 220 211 199 187 180 172 170 169 165 176
231 233 266 281 166 116 140 278 225 215 252 249 159 200 217 252 250 204 186 184 189 193 195 192 197 199 202 204 204 212 217 221 220 222 231 238 230 226 218 219 221 215 197 187 184 192 190 194 186
207 218 246 225 136 42 106 329 238 236 259 283 278 214 216 210 230 202 202 193 190 193 192 197 201 202 203 205 204 205 215 216 220 230 236 240 235 227 216 216 216 209 202 205 198 196 203 191 193
267 219 246 95 129 190 171 255 270 228 240 249 258 253 247 209 243 206 212 196 191 198 195 201 203 205 206 206 205 203 204 210 219 221 231 238 234 227 218 216 219 215 216 216 216 212 210 203 194
233 267 132 187 178 112 171 103 268 150 254 255 254 241 242 223 202 223 224 203 199 196 195 200 205 206 207 208 211 208 208 213 219 238 248 250 241 224 216 219 226 232 234 232 225 202 203 195 192
319 35 32 51 56 18 218 145 268 184 197 184 232 221 216 223 214 209 217 199 179 192 199 205 208 212 208 210 210 212 211 216 217 220 204 189 172 190 195 206 217 224 235 231 212 216 205 198 199
60 66 355 359 4 218 196 94 229 205 192 180 187 156 145 184 207 210 165 178 195 185 200 208 210 209 208 209 210 213 215 216 212 208 202 174 173 180 183 194 196 207 218 229 220 224 226 218 213
339 137 148 261 220 281 82 216 252 182 192 194 173 171 123 138 147 160 173 187 192 186 197 208 212 211 207 209 213 214 220 212 211 208 194 184 183 185 188 183 194 219 231 225 229 230 237 231 233
291 357 188 124 231 28 270 1 5 351 183 142 193 159 144 151 126 148 161 187 195 195 198 206 210 209 211 218 216 217 210 207 205 207 211 219 207 194 191 222 250 227 215 243 268 230 206 212 214
161 189 19 13 24 323 329 310 221 210 209 159 153 145 127 98 98 90 123 166 207 220 223 225 234 241 229 229 223 219 215 211 214 218 226 232 226 229 227 228 240 232 230 220 216 210 201 203 195
351 350 47 114 133 166 200 265 213 195 202 173 144 125 130 122 118 119 117 149 183 213 223 239 251 266 266 246 228 215 211 213 214 221 229 227 228 214 211 193 202 195 210 208 205 207 216 214 188
161 71 114 109 276 228 146 278 349 221 145 135 137 136 145 141 145 152 143 135 142 135 137 142 183 282 260 241 224 219 216 212 208 222 249 225 210 191 190 191 192 212 210 219 226 210 206 206 188
Height
780 780 778 777 804 804 810 791 768 773 781 774 768 775 785 789 795 816 793 799 802 807 811 814 816 818 821 824 826 828 829 832 835 836 835 838 840 842 843 845 846 847 848 848 850 850 850 852 853
780 778 778 787 815 825 812 779 780 771 771 773 771 775 782 797 786 793 798 800 803 807 811 814 816 818 821 824 827 828 830 834 835 836 836 839 841 843 845 846 846 847 848 849 851 851 852 853 853
779 777 785 802 815 826 812 780 773 770 767 767 775 771 780 794 790 793 795 800 804 807 811 814 817 819 821 824 826 828 831 834 835 835 837 840 842 844 846 847 848 848 850 851 850 851 853 854 853
782 778 788 810 812 789 783 774 766 773 773 765 771 789 782 786 789 790 795 801 804 808 812 815 817 820 823 825 826 829 831 834 835 836 839 842 843 845 846 848 849 850 851 852 852 853 853 855 855
783 793 809 809 800 780 769 760 765 773 774 774 774 792 791 788 790 795 798 801 803 808 812 815 818 821 823 826 828 830 832 833 834 837 840 842 843 845 847 848 850 850 851 852 852 853 855 856 856
794 796 814 811 791 770 763 760 763 773 774 780 787 791 796 792 792 797 799 802 805 806 812 815 818 821 825 828 830 832 833 834 835 838 841 842 843 845 846 848 849 850 851 852 853 856 857 856 856
798 813 814 804 784 782 767 759 770 775 781 783 779 798 798 798 797 799 802 804 807 810 813 816 819 822 826 828 830 832 833 835 836 839 841 843 844 845 846 847 848 850 850 851 854 856 857 855 853
799 805 808 798 791 786 758 756 761 770 780 774 776 797 801 793 798 801 805 808 809 811 813 815 817 821 824 828 830 831 832 834 836 838 840 842 844 845 846 846 847 849 849 850 854 856 855 853 852
795 813 817 798 785 779 756 765 760 757 771 771 772 776 781 790 797 803 806 810 812 814 815 815 817 821 825 827 829 831 833 835 837 838 839 841 842 844 846 846 847 848 848 849 854 854 853 853 852
798 801 795 773 768 768 762 762 762 771 777 781 779 781 783 790 796 802 806 809 811 811 813 814 817 819 823 825 827 829 831 834 836 837 839 840 841 843 846 847 847 847 848 849 852 851 851 851 850
798 805 774 766 766 765 765 766 759 777 789 777 782 782 784 787 796 800 803 804 804 808 811 812 815 818 821 824 825 827 829 832 834 836 838 840 842 843 845 847 847 846 848 848 852 851 849 850 848
807 784 780 767 761 760 762 757 769 770 774 770 772 777 783 786 788 795 800 803 807 808 809 812 815 817 820 822 824 826 828 829 832 835 837 839 841 842 843 844 845 846 847 849 850 849 848 848 848
792 780 767 753 755 759 757 770 777 772 769 772 776 780 785 788 788 789 794 798 801 805 808 811 814 817 818 821 823 826 827 829 831 833 835 837 839 840 841 842 843 844 846 848 847 846 846 846 846
774 777 773 764 767 760 765 772 767 779 773 776 776 781 783 784 785 786 788 793 797 800 803 809 813 815 817 818 822 824 826 827 830 832 833 835 836 837 839 840 841 843 844 845 847 846 846 845 845
774 785 775 769 768 769 761 790 787 779 776 781 779 778 781 781 782 781 783 786 790 793 797 804 809 812 815 818 820 823 824 827 829 829 831 833 835 836 837 837 838 840 842 843 843 843 845 846 846
789 789 802 781 771 770 778 811 787 783 780 781 780 776 777 778 777 778 780 784 788 791 794 799 803 808 811 813 816 820 822 825 827 829 830 831 833 834 835 835 835 837 838 839 840 840 842 843 844
802 814 811 799 772 775 780 802 777 773 775 776 776 776 773 774 774 775 776 780 783 786 789 794 798 801 808 813 815 817 819 821 825 827 829 830 831 832 833 834 835 836 834 836 837 839 839 840 842
813 809 802 803 782 772 783 789 774 771 777 780 778 775 772 770 769 770 773 776 780 783 786 789 794 798 803 808 812 814 816 819 822 824 825 827 828 830 831 832 833 834 835 834 834 836 839 840 841
794 800 801 782 771 773 783 786 780 775 780 776 774 771 767 770 767 766 769 771 775 778 781 785 790 793 796 801 806 811 812 815 818 820 822 823 824 825 826 828 832 832 833 832 834 835 837 839 840
796 804 802 777 762 773 789 790 780 777 775 772 772 773 769 768 765 767 766 768 769 770 775 779 782 785 788 791 796 802 807 810 813 815 817 819 820 820 821 822 825 828 829 830 831 831 832 833 835
794 800 788 779 772 776 791 804 792 778 774 771 764 765 765 764 763 764 764 762 765 767 770 774 777 781 785 788 794 797 802 804 806 808 810 812 813 815 815 815 816 819 822 824 826 827 829 829 832
802 762 770 772 788 817 783 832 803 787 781 775 765 761 758 760 758 760 759 761 762 763 767 771 778 781 784 787 790 791 794 797 799 801 803 805 806 808 808 810 812 814 816 817 820 822 824 825 829
768 745 756 758 782 792 793 813 798 787 790 773 760 755 752 750 752 756 755 756 759 762 765 770 772 773 778 782 786 788 790 791 793 797 798 798 798 800 804 806 809 813 814 815 815 817 820 822 824
740 756 768 782 796 827 797 803 801 794 775 764 756 748 744 743 745 749 752 755 759 763 765 766 768 766 772 778 778 781 783 786 788 791 790 791 792 793 797 803 807 807 808 810 811 813 815 817 821
757 788 827 828 824 829 792 801 789 764 757 752 752 746 746 743 742 743 749 750 754 757 758 761 762 764 767 770 772 774 778 781 784 785 783 787 790 792 795 796 799 801 804 806 807 810 814 816 818
760 782 822 829 836 811 789 806 781 747 742 739 736 739 743 742 739 740 744 745 746 748 749 751 754 758 762 764 767 768 775 776 779 779 780 782 787 788 788 792 794 797 801 803 806 809 812 813 814
761 785 768 799 805 814 808 777 757 750 745 743 743 744 746 745 743 744 746 746 747 748 748 748 750 752 757 760 763 764 768 770 771 774 778 782 787 787 787 790 792 793 796 801 805 807 809 812 814
753 750 795 810 824 821 815 796 800 768 761 754 752 751 750 749 748 748 749 750 750 750 751 752 753 754 758 759 760 762 764 767 767 770 775 780 784 785 786 788 791 792 793 798 802 803 805 807 810
765 777 779 795 813 830 840 812 762 761 755 756 756 753 753 753 752 750 750 750 751 752 752 753 753 753 754 754 755 755 755 759 765 770 772 779 780 779 783 785 789 790 796 799 800 802 806 806 805
753 764 786 815 810 813 819 805 746 744 748 750 756 754 752 750 751 751 751 750 751 751 752 753 755 753 750 747 747 749 751 756 768 768 764 778 782 776 781 785 788 791 792 796 800 799 803 806 807